Regional Weather Roundup
Issued by NWS

Home | Current Version | Previous Version | Text Only | Print | Product List | Glossary On
Versions: 1 2 3 4 5 6 7 8 9 10 11 12 13 14 15 16 17 18 19 20 21 22 23 24 25 26 27 28 29 30 31 32 33 34 35 36 37 38 39 40 41 42 43 44 45 46 47 48 49 50
000
ASUS44 KOUN 221710
RWROK

WEATHER ROUNDUP FOR OKLAHOMA
NATIONAL WEATHER SERVICE NORMAN OK
1100 AM CST SUN JAN 22 2017

NOTE: "FAIR" INDICATES FEW OR NO CLOUDS BELOW 12,000 FEET WITH NO
      SIGNIFICANT WEATHER AND/OR OBSTRUCTIONS TO VISIBILITY.

OKZ001>007-009>012-014-015-017-221800-
NORTHWEST OKLAHOMA AND THE PANHANDLE

CITY           SKY/WX    TMP DP  RH WIND       PRES   REMARKS
GAGE           SUNNY     47  37  68 N16G22    29.87R
GUYMON         SUNNY     47  35  63 NW20      29.92R
ENID/WOODRING  MOSUNNY   50  46  87 N26G33    29.74R
$$

OKZ016-021>023-033>039-044-045-221800-
SOUTHWEST OKLAHOMA

CITY           SKY/WX    TMP DP  RH WIND       PRES   REMARKS
LAWTON/REGL    SUNNY     56  40  55 N28G44    29.73R
LAWTON/FT SILL SUNNY     56  42  60 N26G39    29.72R
FREDERICK      SUNNY     55  41  59 NW26G37   29.77R
CLINTON        SUNNY     51  40  65 N21G32    29.83R
HOBART         SUNNY     54  40  59 N26G36    29.81R
ALTUS AFB      SUNNY     55  37  51 N28G35    29.82R
$$

OKZ018>020-024>031-221800-
CENTRAL OKLAHOMA

CITY           SKY/WX    TMP DP  RH WIND       PRES   REMARKS
OKLAHOMA CITY  PTSUNNY   52  43  71 N26G41    29.70R
OKC/WILEY POST MOSUNNY   51  44  77 N29G38    29.71R
OKC/TINKER AFB PTSUNNY   51  44  76 N25G35    29.66R
STILLWATER     CLOUDY    50  43  77 N22G29    29.70R
GUTHRIE        MOSUNNY   52  43  71 N13G24    29.72R
$$

OKZ008-013-054>072-221800-
NORTHEAST OKLAHOMA

CITY           SKY/WX    TMP DP  RH WIND       PRES   REMARKS
TULSA          LGT RAIN  50  49  96 N24G38    29.60R
TULSA/JONES    CLOUDY    51  46  83 N13G26    29.60R
PONCA CITY     MOSUNNY   50  41  71 N23G32    29.72R
BARTLESVILLE   CLOUDY    48  43  82 N17G33    29.66R
MUSKOGEE       LGT RAIN  51  49  92 N25G33    29.52R
$$

OKZ032-040>043-046>053-073>077-221800-
SOUTH CENTRAL/SOUTHEAST OKLAHOMA

CITY           SKY/WX    TMP DP  RH WIND       PRES   REMARKS
ARDMORE/DWNTWN CLOUDY    54  43  66 N12G24    29.64R
MCALESTER      CLOUDY    54  46  74 NW25G32   29.52R
$$




USA.gov is the U.S. government's official web portal to all federal, state and local government web resources and services.